"read_dt","SO2 (ppb)","flags","PMT voltage (V)","lamp voltage (V)","lamp intensity (Hz)","internal temp (C)","react chamber temp (C)","sample flow (l/min)","pres (mmHg)","SO2 bkg (ppb)","SO2 coefficient"
2016-05-17 00:00:00,2029E-3,5C000400,-0724,0833,12105,027.3,045.4,0.256,749.4,01.17,0.508
2016-05-17 00:01:00,1952E-3,5C000400,-0724,0834,12114,027.4,045.4,0.256,749.4,01.17,0.508
2016-05-17 00:02:00,1919E-3,5C000400,-0724,0833,12154,027.4,045.4,0.256,749.3,01.17,0.508
2016-05-17 00:03:00,1872E-3,5C000400,-0724,0834,12020,027.4,045.4,0.256,749.4,01.17,0.508
2016-05-17 00:04:00,1938E-3,5C000400,-0724,0834,12199,027.4,045.4,0.256,749.4,01.17,0.508
2016-05-17 00:05:00,1867E-3,5C000400,-0724,0834,12180,027.4,045.4,0.256,749.4,01.17,0.508
2016-05-17 00:06:00,1961E-3,5C000400,-0724,0834,12196,027.3,045.4,0.256,749.4,01.17,0.508
2016-05-17 00:07:00,2047E-3,5C000400,-0724,0834,12171,027.4,045.4,0.256,749.4,01.17,0.508
2016-05-17 00:08:00,1986E-3,5C000400,-0724,0833,12153,027.4,045.4,0.256,749.3,01.17,0.508
2016-05-17 00:09:00,1948E-3,5C000400,-0724,0833,12177,027.4,045.4,0.256,749.3,01.17,0.508
2016-05-17 00:10:00,1931E-3,5C000400,-0724,0834,12294,027.3,045.4,0.256,749.3,01.17,0.508
2016-05-17 00:11:00,2043E-3,5C000400,-0724,0833,12186,027.4,045.4,0.256,749.3,01.17,0.508
2016-05-17 00:12:00,1922E-3,5C000400,-0724,0833,12241,027.4,045.4,0.256,749.3,01.17,0.508
2016-05-17 00:13:00,1993E-3,5C000400,-0724,0833,12098,027.4,045.4,0.256,749.3,01.17,0.508
2016-05-17 00:14:00,1874E-3,5C000400,-0724,0834,12299,027.4,045.4,0.256,749.3,01.17,0.508
2016-05-17 00:15:00,1890E-3,5C000400,-0724,0834,12135,027.4,045.4,0.256,749.4,01.17,0.508
2016-05-17 00:16:00,1942E-3,5C000400,-0724,0834,12342,027.4,045.4,0.256,749.4,01.17,0.508
2016-05-17 00:17:00,1908E-3,5C000400,-0724,0834,12135,027.4,045.4,0.256,749.2,01.17,0.508
2016-05-17 00:18:00,2015E-3,5C000400,-0724,0834,12234,027.4,045.4,0.256,749.4,01.17,0.508
2016-05-17 00:19:00,1956E-3,5C000400,-0724,0833,12097,027.4,045.4,0.256,749.4,01.17,0.508
2016-05-17 00:20:00,1856E-3,5C000400,-0724,0834,12143,027.4,045.4,0.255,749.3,01.17,0.508
2016-05-17 00:21:00,1930E-3,5C000400,-0724,0833,12157,027.4,045.4,0.256,749.3,01.17,0.508
2016-05-17 00:22:00,1799E-3,5C000400,-0724,0834,11990,027.4,045.4,0.256,749.4,01.17,0.508
2016-05-17 00:23:00,1888E-3,5C000400,-0724,0834,12300,027.4,045.4,0.256,749.3,01.17,0.508
2016-05-17 00:24:00,1968E-3,5C000400,-0724,0833,12192,027.4,045.4,0.256,749.3,01.17,0.508
2016-05-17 00:25:00,2036E-3,5C000400,-0724,0833,12012,027.4,045.4,0.256,749.4,01.17,0.508
2016-05-17 00:26:00,1845E-3,5C000400,-0724,0833,11986,027.4,045.4,0.256,749.4,01.17,0.508
2016-05-17 00:27:00,1912E-3,5C000400,-0724,0833,12052,027.4,045.4,0.256,749.4,01.17,0.508
2016-05-17 00:28:00,2056E-3,5C000400,-0724,0834,12247,027.4,045.4,0.256,749.4,01.17,0.508
2016-05-17 00:29:00,1882E-3,5C000400,-0724,0834,12194,027.4,045.4,0.255,749.4,01.17,0.508
2016-05-17 00:30:00,2027E-3,5C000400,-0724,0834,12112,027.4,045.4,0.255,749.3,01.17,0.508
2016-05-17 00:31:00,1807E-3,5C000400,-0724,0834,12312,027.5,045.4,0.256,749.3,01.17,0.508
2016-05-17 00:32:00,1962E-3,5C000400,-0724,0834,11938,027.4,045.4,0.256,749.3,01.17,0.508
2016-05-17 00:33:00,1946E-3,5C000400,-0724,0833,12173,027.4,045.4,0.256,749.4,01.17,0.508
2016-05-17 00:34:00,1955E-3,5C000400,-0724,0834,12076,027.4,045.4,0.256,749.4,01.17,0.508
2016-05-17 00:35:00,1947E-3,5C000400,-0724,0834,12258,027.4,045.4,0.256,749.4,01.17,0.508
2016-05-17 00:36:00,2026E-3,5C000400,-0724,0834,12269,027.4,045.4,0.256,749.4,01.17,0.508
2016-05-17 00:37:00,1993E-3,5C000400,-0724,0833,12073,027.4,045.4,0.256,749.4,01.17,0.508
2016-05-17 00:38:00,1860E-3,5C000400,-0724,0834,12122,027.4,045.4,0.256,749.4,01.17,0.508
2016-05-17 00:39:00,1961E-3,5C000400,-0724,0833,12195,027.5,045.4,0.256,749.4,01.17,0.508
2016-05-17 00:40:00,1853E-3,5C000400,-0724,0835,12321,027.5,045.4,0.256,749.4,01.17,0.508
2016-05-17 00:41:00,2019E-3,5C000400,-0724,0833,12106,027.5,045.4,0.256,749.4,01.17,0.508
2016-05-17 00:42:00,1943E-3,5C000400,-0724,0833,12028,027.5,045.4,0.256,749.4,01.17,0.508
2016-05-17 00:43:00,1938E-3,5C000400,-0724,0833,12007,027.5,045.4,0.256,749.4,01.17,0.508
2016-05-17 00:44:00,1875E-3,5C000400,-0724,0833,12122,027.5,045.4,0.256,749.4,01.17,0.508
2016-05-17 00:45:00,1994E-3,5C000400,-0724,0833,12102,027.5,045.4,0.256,749.4,01.17,0.508
2016-05-17 00:46:00,1745E-3,5C000400,-0724,0834,12196,027.5,045.4,0.256,749.4,01.17,0.508
2016-05-17 00:47:00,1900E-3,5C000400,-0724,0834,12227,027.5,045.4,0.256,749.5,01.17,0.508
2016-05-17 00:48:00,1835E-3,5C000400,-0724,0833,12259,027.5,045.4,0.255,749.5,01.17,0.508
2016-05-17 00:49:00,1914E-3,5C000400,-0724,0834,12178,027.5,045.4,0.255,749.5,01.17,0.508
2016-05-17 00:50:00,1926E-3,5C000400,-0724,0834,12119,027.5,045.4,0.255,749.5,01.17,0.508
2016-05-17 00:51:00,2052E-3,5C000400,-0724,0834,12058,027.5,045.4,0.256,749.5,01.17,0.508
2016-05-17 00:52:00,1959E-3,5C000400,-0724,0833,12178,027.5,045.4,0.256,749.5,01.17,0.508
2016-05-17 00:53:00,2013E-3,5C000400,-0724,0833,12077,027.5,045.4,0.256,749.4,01.17,0.508
2016-05-17 00:54:00,1856E-3,5C000400,-0724,0833,12016,027.5,045.4,0.256,749.4,01.17,0.508
2016-05-17 00:55:00,1864E-3,5C000400,-0724,0833,12081,027.5,045.4,0.256,749.4,01.17,0.508
2016-05-17 00:56:00,1904E-3,5C000400,-0724,0834,11775,027.5,045.4,0.256,749.4,01.17,0.508
2016-05-17 00:57:00,1834E-3,5C000400,-0724,0833,12092,027.5,045.4,0.256,749.4,01.17,0.508
2016-05-17 00:58:00,1923E-3,5C000400,-0724,0834,12290,027.5,045.4,0.256,749.3,01.17,0.508
2016-05-17 00:59:00,2028E-3,5C000400,-0724,0834,12195,027.5,045.4,0.255,749.4,01.17,0.508
2016-05-17 01:00:00,1931E-3,5C000400,-0724,0834,11958,027.5,045.4,0.255,749.5,01.17,0.508
2016-05-17 01:01:00,1832E-3,5C000400,-0724,0834,11988,027.5,045.4,0.255,749.4,01.17,0.508
2016-05-17 01:02:00,1891E-3,5C000400,-0724,0834,12212,027.5,045.4,0.255,749.5,01.17,0.508
2016-05-17 01:03:00,1905E-3,5C000400,-0724,0834,12032,027.5,045.4,0.255,749.3,01.17,0.508
2016-05-17 01:04:00,1899E-3,5C000400,-0724,0833,12113,027.5,045.4,0.255,749.3,01.17,0.508
2016-05-17 01:05:00,1933E-3,5C000400,-0724,0833,12269,027.5,045.4,0.255,749.3,01.17,0.508
2016-05-17 01:06:00,1969E-3,5C000400,-0724,0834,12270,027.5,045.4,0.255,749.4,01.17,0.508
2016-05-17 01:07:00,1903E-3,5C000400,-0724,0833,12059,027.5,045.4,0.255,749.5,01.17,0.508
2016-05-17 01:08:00,1996E-3,5C000400,-0724,0834,12114,027.5,045.4,0.256,749.4,01.17,0.508
2016-05-17 01:09:00,1984E-3,5C000400,-0724,0834,12076,027.5,045.4,0.256,749.4,01.17,0.508
2016-05-17 01:10:00,1887E-3,5C000400,-0724,0833,12213,027.5,045.4,0.256,749.5,01.17,0.508
2016-05-17 01:11:00,1880E-3,5C000400,-0724,0833,11953,027.5,045.4,0.256,749.4,01.17,0.508
2016-05-17 01:12:00,1887E-3,5C000400,-0724,0833,12082,027.5,045.4,0.256,749.4,01.17,0.508
2016-05-17 01:13:00,1912E-3,5C000400,-0724,0833,11997,027.6,045.4,0.256,749.4,01.17,0.508
2016-05-17 01:14:00,1961E-3,5C000400,-0724,0833,12026,027.5,045.4,0.256,749.5,01.17,0.508
2016-05-17 01:15:00,1967E-3,5C000400,-0724,0833,12217,027.5,045.4,0.256,749.5,01.17,0.508
2016-05-17 01:16:00,1943E-3,5C000400,-0724,0834,12044,027.6,045.4,0.256,749.5,01.17,0.508
2016-05-17 01:17:00,1950E-3,5C000400,-0724,0834,12141,027.6,045.4,0.256,749.5,01.17,0.508
2016-05-17 01:18:00,1772E-3,5C000400,-0724,0833,12151,027.5,045.4,0.256,749.5,01.17,0.508
2016-05-17 01:19:00,1980E-3,5C000400,-0724,0834,12244,027.6,045.4,0.256,749.5,01.17,0.508
2016-05-17 01:20:00,1889E-3,5C000400,-0724,0833,12187,027.5,045.4,0.256,749.5,01.17,0.508
2016-05-17 01:21:00,2029E-3,5C000400,-0724,0833,12129,027.6,045.4,0.256,749.6,01.17,0.508
2016-05-17 01:22:00,1926E-3,5C000400,-0724,0833,12031,027.6,045.4,0.256,749.5,01.17,0.508
2016-05-17 01:23:00,1963E-3,5C000400,-0724,0833,12051,027.5,045.4,0.256,749.5,01.17,0.508
2016-05-17 01:24:00,2049E-3,5C000400,-0724,0833,12182,027.6,045.4,0.256,749.5,01.17,0.508
2016-05-17 01:25:00,1883E-3,5C000400,-0724,0833,12139,027.6,045.4,0.256,749.6,01.17,0.508
2016-05-17 01:26:00,2012E-3,5C000400,-0724,0833,12146,027.6,045.4,0.256,749.5,01.17,0.508
2016-05-17 01:27:00,2074E-3,5C000400,-0724,0834,12129,027.5,045.4,0.255,749.6,01.17,0.508
2016-05-17 01:28:00,1853E-3,5C000400,-0724,0834,12282,027.5,045.4,0.255,749.5,01.17,0.508
2016-05-17 01:29:00,1938E-3,5C000400,-0724,0834,12152,027.6,045.4,0.255,749.5,01.17,0.508
2016-05-17 01:30:00,2023E-3,5C000400,-0724,0834,12185,027.6,045.4,0.255,749.6,01.17,0.508
2016-05-17 01:31:00,1892E-3,5C000400,-0724,0834,12137,027.6,045.4,0.255,749.5,01.17,0.508
2016-05-17 01:32:00,1888E-3,5C000400,-0724,0833,12157,027.6,045.4,0.255,749.7,01.17,0.508
2016-05-17 01:33:00,1965E-3,5C000400,-0724,0834,12263,027.6,045.4,0.255,749.6,01.17,0.508
2016-05-17 01:34:00,1982E-3,5C000400,-0724,0834,12128,027.6,045.4,0.255,749.7,01.17,0.508
2016-05-17 01:35:00,1932E-3,5C000400,-0724,0834,12211,027.6,045.4,0.255,749.6,01.17,0.508
2016-05-17 01:36:00,1984E-3,5C000400,-0724,0834,12093,027.6,045.4,0.255,749.6,01.17,0.508
2016-05-17 01:37:00,1884E-3,5C000400,-0724,0834,12229,027.6,045.4,0.255,749.5,01.17,0.508
2016-05-17 01:38:00,2051E-3,5C000400,-0724,0834,12120,027.6,045.4,0.256,749.7,01.17,0.508
2016-05-17 01:39:00,1991E-3,5C000400,-0724,0833,12182,027.6,045.4,0.256,749.6,01.17,0.508
2016-05-17 01:40:00,1947E-3,5C000400,-0724,0833,12197,027.6,045.4,0.256,749.6,01.17,0.508
2016-05-17 01:41:00,1807E-3,5C000400,-0724,0834,12116,027.6,045.4,0.256,749.6,01.17,0.508
2016-05-17 01:42:00,1947E-3,5C000400,-0724,0834,12217,027.6,045.4,0.256,749.7,01.17,0.508
2016-05-17 01:43:00,1832E-3,5C000400,-0724,0834,12235,027.6,045.4,0.256,749.7,01.17,0.508
2016-05-17 01:44:00,1823E-3,5C000400,-0724,0834,12142,027.6,045.4,0.255,749.8,01.17,0.508
2016-05-17 01:45:00,1869E-3,5C000400,-0724,0833,12058,027.6,045.4,0.255,749.7,01.17,0.508
2016-05-17 01:46:00,1855E-3,5C000400,-0724,0833,12161,027.6,045.4,0.255,749.6,01.17,0.508
2016-05-17 01:47:00,1842E-3,5C000400,-0724,0833,12217,027.6,045.4,0.255,749.7,01.17,0.508
2016-05-17 01:48:00,2030E-3,5C000400,-0724,0834,12243,027.6,045.4,0.255,749.6,01.17,0.508
2016-05-17 01:49:00,1964E-3,5C000400,-0724,0834,12167,027.6,045.4,0.255,749.7,01.17,0.508
2016-05-17 01:50:00,1914E-3,5C000400,-0724,0833,12156,027.6,045.4,0.255,749.7,01.17,0.508
2016-05-17 01:51:00,2113E-3,5C000400,-0724,0834,12127,027.6,045.4,0.255,749.7,01.17,0.508
2016-05-17 01:52:00,1973E-3,5C000400,-0724,0833,12199,027.6,045.4,0.255,749.8,01.17,0.508
2016-05-17 01:53:00,1888E-3,5C000400,-0724,0834,12118,027.7,045.4,0.255,749.7,01.17,0.508
2016-05-17 01:54:00,1803E-3,5C000400,-0724,0834,12223,027.7,045.4,0.255,749.7,01.17,0.508
2016-05-17 01:55:00,1885E-3,5C000400,-0724,0834,12064,027.7,045.4,0.255,749.7,01.17,0.508
2016-05-17 01:56:00,1733E-3,5C000400,-0724,0833,12220,027.6,045.4,0.255,749.6,01.17,0.508
2016-05-17 01:57:00,1892E-3,5C000400,-0724,0833,12208,027.6,045.4,0.255,749.7,01.17,0.508
2016-05-17 01:58:00,2069E-3,5C000400,-0724,0833,12213,027.6,045.4,0.255,749.6,01.17,0.508
2016-05-17 01:59:00,1969E-3,5C000400,-0724,0833,12215,027.6,045.4,0.255,749.7,01.17,0.508
2016-05-17 02:00:00,2010E-3,5C000400,-0724,0834,12076,027.6,045.4,0.255,749.5,01.17,0.508
2016-05-17 02:01:00,1899E-3,5C000400,-0724,0833,12301,027.6,045.4,0.255,749.6,01.17,0.508
2016-05-17 02:02:00,1815E-3,5C000400,-0724,0834,12140,027.7,045.4,0.255,749.7,01.17,0.508
2016-05-17 02:03:00,1956E-3,5C000400,-0724,0833,12179,027.7,045.4,0.255,749.6,01.17,0.508
2016-05-17 02:04:00,1921E-3,5C000400,-0724,0834,12251,027.7,045.4,0.255,749.7,01.17,0.508
2016-05-17 02:05:00,1832E-3,5C000400,-0724,0834,12026,027.7,045.4,0.255,749.7,01.17,0.508
2016-05-17 02:06:00,1914E-3,5C000400,-0724,0833,12101,027.7,045.4,0.255,749.6,01.17,0.508
2016-05-17 02:07:00,1912E-3,5C000400,-0724,0834,12061,027.6,045.4,0.255,749.8,01.17,0.508
2016-05-17 02:08:00,1969E-3,5C000400,-0724,0833,12055,027.7,045.4,0.256,749.6,01.17,0.508
2016-05-17 02:09:00,1846E-3,5C000400,-0724,0834,12129,027.7,045.4,0.256,749.8,01.17,0.508
2016-05-17 02:10:00,2038E-3,5C000400,-0724,0833,12032,027.7,045.4,0.255,749.6,01.17,0.508
2016-05-17 02:11:00,1981E-3,5C000400,-0724,0833,12205,027.6,045.4,0.255,749.8,01.17,0.508
2016-05-17 02:12:00,2054E-3,5C000400,-0724,0834,12189,027.7,045.4,0.255,749.8,01.17,0.508
2016-05-17 02:13:00,1964E-3,5C000400,-0724,0834,12148,027.7,045.4,0.255,749.9,01.17,0.508
2016-05-17 02:14:00,1977E-3,5C000400,-0724,0834,12236,027.7,045.4,0.255,749.9,01.17,0.508
2016-05-17 02:15:00,1983E-3,5C000400,-0724,0833,12156,027.7,045.4,0.255,749.7,01.17,0.508
2016-05-17 02:16:00,1807E-3,5C000400,-0724,0833,12052,027.7,045.4,0.255,749.7,01.17,0.508
2016-05-17 02:17:00,2011E-3,5C000400,-0724,0833,12031,027.7,045.4,0.255,749.8,01.17,0.508
2016-05-17 02:18:00,1794E-3,5C000400,-0724,0834,12210,027.7,045.4,0.255,749.8,01.17,0.508
2016-05-17 02:19:00,1887E-3,5C000400,-0724,0834,12066,027.7,045.4,0.255,749.5,01.17,0.508
2016-05-17 02:20:00,1994E-3,5C000400,-0724,0833,12208,027.7,045.4,0.255,749.9,01.17,0.508
2016-05-17 02:21:00,1770E-3,5C000400,-0724,0834,12154,027.7,045.4,0.255,749.8,01.17,0.508
2016-05-17 02:22:00,1821E-3,5C000400,-0724,0834,12313,027.7,045.4,0.255,749.8,01.17,0.508
2016-05-17 02:23:00,1962E-3,5C000400,-0724,0833,12058,027.7,045.4,0.255,749.8,01.17,0.508
2016-05-17 02:24:00,2051E-3,5C000400,-0724,0834,12266,027.7,045.4,0.255,749.8,01.17,0.508
2016-05-17 02:25:00,1975E-3,5C000400,-0724,0833,12202,027.7,045.4,0.255,749.8,01.17,0.508
2016-05-17 02:26:00,1903E-3,5C000400,-0724,0834,12218,027.7,045.4,0.255,749.8,01.17,0.508
2016-05-17 02:27:00,1932E-3,5C000400,-0724,0834,11931,027.7,045.4,0.255,749.8,01.17,0.508
2016-05-17 02:28:00,2113E-3,5C000400,-0724,0833,12163,027.7,045.4,0.255,749.9,01.17,0.508
2016-05-17 02:29:00,1943E-3,5C000400,-0724,0834,12243,027.7,045.4,0.255,749.9,01.17,0.508
2016-05-17 02:30:00,1972E-3,5C000400,-0724,0834,12107,027.7,045.4,0.255,749.9,01.17,0.508
2016-05-17 02:31:00,1926E-3,5C000400,-0724,0834,12195,027.7,045.4,0.255,749.8,01.17,0.508
2016-05-17 02:32:00,2005E-3,5C000400,-0724,0834,12306,027.7,045.4,0.255,749.9,01.17,0.508
2016-05-17 02:33:00,2012E-3,5C000400,-0724,0833,12110,027.7,045.4,0.255,749.9,01.17,0.508
2016-05-17 02:34:00,2017E-3,5C000400,-0724,0833,12087,027.7,045.4,0.255,750.0,01.17,0.508
2016-05-17 02:35:00,1920E-3,5C000400,-0724,0834,12213,027.7,045.4,0.255,750.0,01.17,0.508
2016-05-17 02:36:00,2015E-3,5C000400,-0724,0834,12048,027.7,045.4,0.255,749.9,01.17,0.508
2016-05-17 02:37:00,2043E-3,5C000400,-0724,0834,11995,027.7,045.4,0.255,749.8,01.17,0.508
2016-05-17 02:38:00,1807E-3,5C000400,-0724,0834,12081,027.7,045.4,0.255,749.9,01.17,0.508
2016-05-17 02:39:00,1681E-3,5C000400,-0724,0833,12203,027.7,045.4,0.256,749.8,01.17,0.508
2016-05-17 02:40:00,1922E-3,5C000400,-0724,0833,12126,027.7,045.4,0.255,750.0,01.17,0.508
2016-05-17 02:41:00,2073E-3,5C000400,-0724,0834,12288,027.7,045.4,0.255,750.0,01.17,0.508
2016-05-17 02:42:00,1973E-3,5C000400,-0724,0833,12100,027.7,045.4,0.255,750.0,01.17,0.508
2016-05-17 02:43:00,2101E-3,5C000400,-0724,0834,12224,027.8,045.4,0.255,750.0,01.17,0.508
2016-05-17 02:44:00,1882E-3,5C000400,-0724,0834,12187,027.7,045.4,0.255,750.0,01.17,0.508
2016-05-17 02:45:00,1891E-3,5C000400,-0724,0834,12154,027.8,045.4,0.255,749.9,01.17,0.508
2016-05-17 02:46:00,1969E-3,5C000400,-0724,0834,12183,027.7,045.4,0.255,750.1,01.17,0.508
2016-05-17 02:47:00,1894E-3,5C000400,-0724,0833,12115,027.8,045.4,0.255,750.2,01.17,0.508
2016-05-17 02:48:00,1921E-3,5C000400,-0724,0833,12178,027.7,045.4,0.255,750.1,01.17,0.508
2016-05-17 02:49:00,1928E-3,5C000400,-0724,0834,12214,027.8,045.4,0.255,750.1,01.17,0.508
2016-05-17 02:50:00,1933E-3,5C000400,-0724,0834,12253,027.8,045.4,0.256,750.1,01.17,0.508
2016-05-17 02:51:00,1923E-3,5C000400,-0724,0834,12201,027.7,045.4,0.255,750.1,01.17,0.508
2016-05-17 02:52:00,1796E-3,5C000400,-0724,0834,12048,027.8,045.4,0.255,750.1,01.17,0.508
2016-05-17 02:53:00,2029E-3,5C000400,-0724,0833,12261,027.8,045.4,0.255,750.2,01.17,0.508
2016-05-17 02:54:00,2003E-3,5C000400,-0724,0834,12262,027.7,045.4,0.255,750.2,01.17,0.508
2016-05-17 02:55:00,2014E-3,5C000400,-0724,0833,12127,027.7,045.4,0.255,750.3,01.17,0.508
2016-05-17 02:56:00,2025E-3,5C000400,-0724,0833,12228,027.7,045.4,0.255,750.2,01.17,0.508
2016-05-17 02:57:00,2002E-3,5C000400,-0724,0833,12057,027.8,045.4,0.255,750.2,01.17,0.508
2016-05-17 02:58:00,1898E-3,5C000400,-0724,0834,12121,027.7,045.4,0.255,750.2,01.17,0.508
2016-05-17 02:59:00,2000E-3,5C000400,-0724,0834,12127,027.7,045.4,0.255,750.2,01.17,0.508
2016-05-17 03:00:00,1844E-3,5C000400,-0724,0834,12153,027.8,045.4,0.255,750.2,01.17,0.508
2016-05-17 03:01:00,1971E-3,5C000400,-0724,0834,12254,027.8,045.4,0.255,750.3,01.17,0.508
2016-05-17 03:02:00,1884E-3,5C000400,-0724,0834,12249,027.8,045.4,0.255,750.3,01.17,0.508
2016-05-17 03:03:00,2050E-3,5C000400,-0724,0833,12203,027.8,045.4,0.255,750.3,01.17,0.508
2016-05-17 03:04:00,1856E-3,5C000400,-0724,0833,12176,027.8,045.4,0.255,750.3,01.17,0.508
2016-05-17 03:05:00,2042E-3,5C000400,-0724,0833,12091,027.8,045.4,0.255,750.3,01.17,0.508
2016-05-17 03:06:00,2044E-3,5C000400,-0724,0833,12157,027.8,045.4,0.255,750.3,01.17,0.508
2016-05-17 03:07:00,1864E-3,5C000400,-0724,0834,12116,027.8,045.4,0.255,750.3,01.17,0.508
2016-05-17 03:08:00,1928E-3,5C000400,-0724,0833,12272,027.8,045.4,0.255,750.2,01.17,0.508
2016-05-17 03:09:00,1916E-3,5C000400,-0724,0833,12044,027.8,045.4,0.255,750.4,01.17,0.508
2016-05-17 03:10:00,1935E-3,5C000400,-0724,0834,12130,027.8,045.4,0.255,750.4,01.17,0.508
2016-05-17 03:11:00,1960E-3,5C000400,-0724,0833,12026,027.8,045.4,0.255,750.4,01.17,0.508
2016-05-17 03:12:00,2027E-3,5C000400,-0724,0834,12166,027.8,045.4,0.255,750.5,01.17,0.508
2016-05-17 03:13:00,1895E-3,5C000400,-0724,0833,12147,027.8,045.4,0.255,750.4,01.17,0.508
2016-05-17 03:14:00,1885E-3,5C000400,-0724,0834,12118,027.8,045.4,0.255,750.4,01.17,0.508
2016-05-17 03:15:00,1920E-3,5C000400,-0724,0834,12199,027.8,045.4,0.255,750.5,01.17,0.508
2016-05-17 03:16:00,2007E-3,5C000400,-0724,0833,12163,027.8,045.4,0.255,750.4,01.17,0.508
2016-05-17 03:17:00,1865E-3,5C000400,-0724,0833,12129,027.8,045.4,0.255,750.4,01.17,0.508
2016-05-17 03:18:00,2006E-3,5C000400,-0724,0834,12162,027.8,045.4,0.255,750.3,01.17,0.508
2016-05-17 03:19:00,2045E-3,5C000400,-0724,0833,12270,027.8,045.4,0.255,750.4,01.17,0.508
2016-05-17 03:20:00,1963E-3,5C000400,-0724,0834,12273,027.8,045.4,0.255,750.5,01.17,0.508
2016-05-17 03:21:00,1884E-3,5C000400,-0724,0834,12207,027.8,045.4,0.255,750.4,01.17,0.508
2016-05-17 03:22:00,2015E-3,5C000400,-0724,0834,12146,027.8,045.4,0.255,750.4,01.17,0.508
2016-05-17 03:23:00,1923E-3,5C000400,-0724,0834,12285,027.8,045.4,0.255,750.5,01.17,0.508
2016-05-17 03:24:00,1987E-3,5C000400,-0724,0834,12047,027.8,045.4,0.255,750.5,01.17,0.508
2016-05-17 03:25:00,1928E-3,5C000400,-0724,0834,12140,027.8,045.4,0.255,750.5,01.17,0.508
2016-05-17 03:26:00,1836E-3,5C000400,-0724,0834,12239,027.8,045.4,0.255,750.4,01.17,0.508
2016-05-17 03:27:00,1898E-3,5C000400,-0724,0833,12348,027.8,045.4,0.255,750.5,01.17,0.508
2016-05-17 03:28:00,1851E-3,5C000400,-0724,0833,12146,027.8,045.4,0.255,750.4,01.17,0.508
2016-05-17 03:29:00,1953E-3,5C000400,-0724,0833,12187,027.8,045.4,0.255,750.5,01.17,0.508
2016-05-17 03:30:00,1969E-3,5C000400,-0724,0833,12152,027.8,045.4,0.255,750.6,01.17,0.508
2016-05-17 03:31:00,1991E-3,5C000400,-0724,0834,12105,027.8,045.4,0.255,750.4,01.17,0.508
2016-05-17 03:32:00,1967E-3,5C000400,-0724,0834,12248,027.8,045.4,0.255,750.3,01.17,0.508
2016-05-17 03:33:00,1923E-3,5C000400,-0724,0834,12169,027.9,045.4,0.255,750.4,01.17,0.508
2016-05-17 03:34:00,1985E-3,5C000400,-0724,0834,12178,027.9,045.4,0.255,750.5,01.17,0.508
2016-05-17 03:35:00,1944E-3,5C000400,-0724,0833,12075,027.8,045.4,0.255,750.3,01.17,0.508
2016-05-17 03:36:00,1903E-3,5C000400,-0724,0834,12185,027.8,045.4,0.255,750.5,01.17,0.508
2016-05-17 03:37:00,1926E-3,5C000400,-0724,0834,12147,027.9,045.4,0.255,750.5,01.17,0.508
2016-05-17 03:38:00,1868E-3,5C000400,-0724,0833,12203,027.9,045.4,0.255,750.4,01.17,0.508
2016-05-17 03:39:00,2018E-3,5C000400,-0724,0834,12176,027.9,045.4,0.255,750.4,01.17,0.508
2016-05-17 03:40:00,1981E-3,5C000400,-0724,0833,12176,027.9,045.4,0.255,750.3,01.17,0.508
2016-05-17 03:41:00,2034E-3,5C000400,-0724,0834,12154,027.8,045.4,0.255,750.4,01.17,0.508
2016-05-17 03:42:00,1918E-3,5C000400,-0724,0833,12252,027.9,045.4,0.255,750.6,01.17,0.508
2016-05-17 03:43:00,2024E-3,5C000400,-0724,0833,12077,027.9,045.4,0.255,750.4,01.17,0.508
2016-05-17 03:44:00,1962E-3,5C000400,-0724,0833,12074,027.9,045.4,0.255,750.4,01.17,0.508
2016-05-17 03:45:00,1911E-3,5C000400,-0724,0833,12203,027.9,045.4,0.255,750.5,01.17,0.508
2016-05-17 03:46:00,1914E-3,5C000400,-0724,0834,11849,027.9,045.4,0.255,750.5,01.17,0.508
2016-05-17 03:47:00,1952E-3,5C000400,-0724,0833,12109,027.9,045.4,0.255,750.4,01.17,0.508
2016-05-17 03:48:00,1974E-3,5C000400,-0724,0834,12258,027.9,045.4,0.255,750.5,01.17,0.508
2016-05-17 03:49:00,2068E-3,5C000400,-0724,0833,12083,027.9,045.4,0.255,750.4,01.17,0.508
2016-05-17 03:50:00,1962E-3,5C000400,-0724,0834,12156,027.9,045.4,0.255,750.7,01.17,0.508
2016-05-17 03:51:00,1917E-3,5C000400,-0724,0834,12252,027.9,045.4,0.255,750.6,01.17,0.508
2016-05-17 03:52:00,2057E-3,5C000400,-0724,0834,12164,027.9,045.4,0.255,750.7,01.17,0.508
2016-05-17 03:53:00,1823E-3,5C000400,-0724,0833,12182,027.9,045.4,0.255,750.5,01.17,0.508
2016-05-17 03:54:00,1878E-3,5C000400,-0724,0834,12113,027.9,045.4,0.255,750.7,01.17,0.508
2016-05-17 03:55:00,1895E-3,5C000400,-0724,0834,12127,027.9,045.4,0.255,750.7,01.17,0.508
2016-05-17 03:56:00,1942E-3,5C000400,-0724,0834,12084,027.9,045.4,0.255,750.7,01.17,0.508
2016-05-17 03:57:00,1848E-3,5C000400,-0724,0833,11927,027.9,045.4,0.255,750.7,01.17,0.508
2016-05-17 03:58:00,1826E-3,5C000400,-0724,0833,12131,027.9,045.4,0.255,750.4,01.17,0.508
2016-05-17 03:59:00,1849E-3,5C000400,-0724,0834,12287,027.9,045.4,0.255,750.5,01.17,0.508
2016-05-17 04:00:00,1931E-3,5C000400,-0724,0834,12086,027.9,045.5,0.255,750.5,01.17,0.508
2016-05-17 04:01:00,1893E-3,5C000400,-0724,0834,12137,027.9,045.4,0.255,750.6,01.17,0.508
2016-05-17 04:02:00,1932E-3,5C000400,-0724,0834,12143,028.0,045.4,0.255,750.7,01.17,0.508
2016-05-17 04:03:00,1939E-3,5C000400,-0724,0833,12226,027.9,045.4,0.255,750.5,01.17,0.508
2016-05-17 04:04:00,2022E-3,5C000400,-0724,0833,12099,027.9,045.4,0.255,750.5,01.17,0.508
2016-05-17 04:05:00,1981E-3,5C000400,-0724,0834,11976,028.0,045.4,0.255,750.5,01.17,0.508
2016-05-17 04:06:00,1851E-3,5C000400,-0724,0834,12195,027.9,045.4,0.255,750.7,01.17,0.508
2016-05-17 04:07:00,1960E-3,5C000400,-0724,0833,12166,028.0,045.4,0.255,750.4,01.17,0.508
2016-05-17 04:08:00,1948E-3,5C000400,-0724,0833,12239,027.9,045.4,0.255,750.6,01.17,0.508
2016-05-17 04:09:00,1923E-3,5C000400,-0724,0834,12177,027.9,045.4,0.255,750.4,01.17,0.508
2016-05-17 04:10:00,2010E-3,5C000400,-0724,0834,12117,028.0,045.4,0.255,750.5,01.17,0.508
2016-05-17 04:11:00,2015E-3,5C000400,-0724,0834,12146,028.0,045.4,0.255,750.7,01.17,0.508
2016-05-17 04:12:00,1936E-3,5C000400,-0724,0833,12128,028.0,045.4,0.254,750.6,01.17,0.508
2016-05-17 04:13:00,2052E-3,5C000400,-0724,0833,12163,028.0,045.4,0.254,750.7,01.17,0.508
2016-05-17 04:14:00,1957E-3,5C000400,-0724,0833,12102,028.0,045.4,0.254,750.4,01.17,0.508
2016-05-17 04:15:00,2012E-3,5C000400,-0724,0834,12251,028.0,045.4,0.254,750.8,01.17,0.508
2016-05-17 04:16:00,1875E-3,5C000400,-0724,0834,12089,028.0,045.4,0.254,750.6,01.17,0.508
2016-05-17 04:17:00,1925E-3,5C000400,-0724,0833,12265,028.0,045.4,0.254,750.7,01.17,0.508
2016-05-17 04:18:00,1865E-3,5C000400,-0724,0833,12183,028.0,045.4,0.254,750.6,01.17,0.508
2016-05-17 04:19:00,1854E-3,5C000400,-0724,0833,12135,028.0,045.4,0.254,750.5,01.17,0.508
2016-05-17 04:20:00,1860E-3,5C000400,-0724,0834,12120,028.0,045.4,0.255,750.8,01.17,0.508